Orbital Elements at Epoch 2459000.5 (2020-May-31.0) TDB
Reference: JPL 8 (heliocentric ecliptic J2000)
Element | Value | Uncertainty (1-sigma) | Units |
e | .1064391177332277 | 7.5833e-08 | |
a | 3.148839658227997 | 7.4283e-08 | au |
q | 2.813679943122811 | 2.4658e-07 | au |
i | 10.70636367485134 | 5.7893e-06 | deg |
node | 252.3567670147672 | 4.5397e-05 | deg |
peri | 258.9505615312352 | 5.4466e-05 | deg |
M | 208.2666352125625 | 3.5481e-05 | deg |
tp | 2459860.706727173595 (2022-Oct-08.20672717) | 0.00021962 | TDB |
period | 2040.911847017401 5.59 | 7.2219e-05 1.977e-07 | d yr |
n | .1763917439776274 | 6.2418e-09 | deg/d |
Q | 3.483999373333183 | 8.2189e-08 | au |
|
| | Orbit Determination Parameters
Additional Information
|